[[{"header":{"parameterUnit":"m.s-1","parameterCategory":2,"la1":30.2991,"la2":30.254,"lo1":-89.0895,"lo2":-89.0444,"dy":0.0017,"dx":0.0017,"nx":28,"ny":28,"refTime":"2026-02-12T03:00:00:Z","depth":"0","parameterNumber":2,"parameterNumberName":"U-component_of_CURRENTS"},"data":[0,0,0,0,0,0,0,0,0,0,0,0,0,0,0,0,0,0,0,0,0,0,0,0,0,0,0,0,0,0,0,0,0,0,0,0,0,0,0,0,0,0,0,0,0,0,0,0,0,0,0,0,0,0,0,0,0,0,0.1764,0.1764,0,0.1816,0.1816,0.1817,0.1825,0.1824,0.1824,0.1823,0.1831,0.1831,0.1832,0,0,0,0,0,0,0,0,0,0,0,0,0,0.1699,0.17,0.1764,0.1764,0.1765,0.1816,0.1816,0.1817,0.1825,0.1824,0.1824,0.1823,0.183,0.1831,0.1832,0,0,0,0,0,0,0,0,0,0,0,0,0,0.1736,0.17,0.1764,0.1776,0.1777,0.1815,0.1816,0.1817,0.1825,0.1824,0.1824,0.1823,0.183,0.1831,0.1832,0.1849,0,0,0.1834,0.1835,0,0,0,0,0,0,0,0,0.1733,0.1738,0.1773,0.1775,0.1777,0.1814,0.1796,0.1826,0.1825,0.1806,0.1823,0.1823,0.1822,0.1823,0.1834,0.185,0.185,0.1835,0.1835,0.1835,0.1836,0,0,0,0,0,0,0,0.1731,0.1736,0.1784,0.1774,0.1776,0.1788,0.1792,0.1802,0.1815,0.1808,0.1809,0.1816,0.1822,0.1833,0.1834,0.185,0.1835,0.1835,0.1836,0.1836,0.1918,0.1919,0,0,0,0,0,0,0.1725,0.1733,0.1782,0.1785,0.1754,0.1789,0.1794,0.1802,0.1816,0.1818,0.1816,0.1816,0.1832,0.1833,0.1834,0.1886,0.1835,0.1836,0.1837,0.1916,0.1918,0.192,0,0,0,0,0,0,0.1724,0.1729,0.178,0.1761,0.1768,0.1791,0.18,0.1803,0.1817,0.1823,0.1824,0.1826,0.1832,0.1833,0.1861,0.1885,0.1837,0.1837,0.1914,0.1917,0.1919,0.197,0,0,0,0,0,0,0.1722,0.1728,0.1734,0.1761,0.1769,0.1811,0.1801,0.1805,0.1822,0.1822,0.1832,0.1832,0.1831,0.186,0.1862,0.1885,0.1838,0.1912,0.1915,0.1918,0.1966,0.1974,0.1981,0,0,0,0,0,0.1719,0.1731,0.1734,0.174,0.1775,0.1812,0.1818,0.1831,0.1823,0.1839,0.185,0.1832,0.188,0.1862,0.1864,0.1888,0.191,0.1914,0.1918,0.1963,0.1973,0.1981,0,0,0,0,0,0,0.1707,0.1734,0.1737,0.1757,0.1785,0.1814,0.1829,0.1835,0.1857,0.1855,0.1853,0.1856,0.1889,0.1885,0.1864,0.1923,0.1892,0.1897,0.1926,0.1935,0.1942,0.1936,0.1839,0,0,0,0,0,0.1707,0.1722,0.1751,0.1768,0.1782,0.1805,0.182,0.1832,0.1854,0.1862,0.1871,0.1884,0.1907,0.1917,0.1932,0.1963,0.201,0.1981,0.1988,0.1994,0.1992,0.2058,0.2071,0.1932,0.1932,0.1932,0,0,0.1705,0.1724,0.1731,0.1767,0.1787,0.1821,0.1813,0.1843,0.1873,0.1859,0.1899,0.1908,0.1921,0.196,0.1974,0.1959,0.2079,0.1999,0.2004,0.1998,0.2063,0.2077,0.2089,0.1934,0.1934,0.1934,0,0,0.1718,0.1729,0.1749,0.1777,0.1813,0.1833,0.1842,0.1877,0.1893,0.1933,0.1935,0.1958,0.199,0.2008,0.202,0.2075,0.2113,0.2083,0.2114,0.2178,0.219,0.2201,0.2366,0.2391,0.2087,0.2087,0.2087,0,0.1715,0.1746,0.1762,0.1795,0.1821,0.184,0.1875,0.1902,0.1942,0.196,0.1951,0.2009,0.2013,0.2065,0.2086,0.2089,0.2167,0.2078,0.2188,0.2199,0.2208,0.2375,0.2401,0.209,0.209,0.2089,0.2089,0,0.1748,0.1776,0.1793,0.1839,0.187,0.1905,0.1944,0.1974,0.199,0.2013,0.2062,0.2078,0.2111,0.212,0.2119,0.2193,0.2247,0.2189,0.2164,0.2226,0.2398,0.2425,0.2094,0.2093,0.2092,0.2091,0,0,0.1735,0.1802,0.1809,0.1835,0.1897,0.1924,0.198,0.2033,0.2067,0.2099,0.2153,0.2181,0.2183,0.2196,0.2203,0.2249,0.2411,0.2253,0.2255,0.2418,0.2649,0.2705,0.274,0.2373,0.2376,0.2378,0.2775,0,0.1757,0.1818,0.185,0.1911,0.1945,0.1985,0.2035,0.2083,0.2122,0.218,0.2202,0.225,0.2217,0.2241,0.2285,0.2372,0.247,0.2315,0.2564,0.2574,0.2612,0.2766,0.2701,0.3047,0.2801,0.2805,0.2808,0,0.1779,0.1819,0.1877,0.1945,0.1963,0.1999,0.2074,0.2122,0.2203,0.2236,0.2284,0.2313,0.241,0.2351,0.2557,0.2467,0.2568,0.2631,0.2647,0.2685,0.2675,0.2928,0.3105,0.3018,0.2849,0.2846,0.2843,0,0.1759,0.1835,0.1878,0.1904,0.1985,0.2012,0.2054,0.2129,0.2192,0.2275,0.235,0.2429,0.2528,0.2613,0.2767,0.2675,0.302,0.2905,0.3073,0.3083,0.3067,0.3069,0.3174,0.3057,0.3056,0.3055,0.3054,0,0.1768,0.18,0.1866,0.1889,0.1938,0.1996,0.2063,0.2108,0.2221,0.2324,0.2375,0.25,0.2591,0.2791,0.2863,0.3113,0.3121,0.3137,0.3184,0.3095,0.3094,0.3043,0.2966,0.307,0.3066,0.3063,0.3061,0,0.1734,0.1783,0.1828,0.1904,0.1927,0.1954,0.207,0.2139,0.2239,0.2388,0.2434,0.2631,0.2883,0.3034,0.3255,0.3294,0.3405,0.3548,0.3498,0.3528,0.3504,0.3433,0.351,0.3381,0.3782,0.3786,0.3789,0,0.1722,0.1741,0.1814,0.1861,0.1892,0.1956,0.2023,0.2121,0.222,0.2478,0.2573,0.286,0.3063,0.3467,0.3583,0.3812,0.3619,0.387,0.3622,0.3554,0.3509,0.3325,0.3191,0.3687,0.3689,0.369,0.3692,0,0.171,0.1729,0.1784,0.1877,0.1941,0.2003,0.2107,0.2186,0.235,0.2494,0.2755,0.2938,0.3335,0.3543,0.3845,0.3932,0.3677,0.3908,0.3822,0.345,0.3271,0.3151,0.3446,0.3706,0.3705,0.3704,0.3703,0.3702,0.1717,0.1754,0.1859,0.1933,0.2003,0.2087,0.2123,0.2265,0.2419,0.263,0.2826,0.3072,0.3423,0.3813,0.389,0.397,0.3821,0.3858,0.3804,0.3644,0.3403,0.3784,0.4066,0.4067,0.4067,0.4068,0.4068,0,0.1804,0.187,0.1933,0.2033,0.2091,0.2118,0.2224,0.2261,0.2411,0.2634,0.2827,0.3206,0.3485,0.3719,0.3948,0.387,0.364,0.3781,0.3465,0.3346,0.3719,0.3589,0.3795,0.3795,0.3795,0.3795,0.3795,0.3795,0.1884,0.1991,0.2014,0.2126,0.2164,0.2206,0.224,0.2286,0.2415,0.263,0.2818,0.3009,0.3407,0.3803,0.3859,0.3776,0.342,0.3379,0.3259,0.3493,0.3491,0.3489,0.3348,0.35,0.3499,0.2751,0.2745,0.2741]},{"header":{"parameterUnit":"m.s-1","parameterCategory":2,"la1":30.2991,"la2":30.254,"lo1":-89.0895,"lo2":-89.0444,"dy":0.0017,"dx":0.0017,"nx":28,"ny":28,"refTime":"2026-02-12T03:00:00:Z","depth":"0","parameterNumber":3,"parameterNumberName":"V-component_of_CURRENTS"},"data":[0,0,0,0,0,0,0,0,0,0,0,0,0,0,0,0,0,0,0,0,0,0,0,0,0,0,0,0,0,0,0,0,0,0,0,0,0,0,0,0,0,0,0,0,0,0,0,0,0,0,0,0,0,0,0,0,0,0,-0.0326,-0.0327,0,-0.0393,-0.0393,-0.0394,-0.0445,-0.0446,-0.0446,-0.0446,-0.0549,-0.0551,-0.0554,0,0,0,0,0,0,0,0,0,0,0,0,0,-0.0271,-0.0272,-0.0326,-0.0327,-0.0328,-0.0392,-0.0393,-0.0394,-0.0445,-0.0446,-0.0446,-0.0447,-0.0548,-0.0551,-0.0554,0,0,0,0,0,0,0,0,0,0,0,0,0,-0.0312,-0.0272,-0.0326,-0.0361,-0.0364,-0.0392,-0.0393,-0.0395,-0.0445,-0.0446,-0.0446,-0.0447,-0.0547,-0.0551,-0.0554,-0.0562,0,0,-0.0565,-0.0566,0,0,0,0,0,0,0,0,-0.031,-0.0314,-0.0355,-0.0358,-0.0362,-0.0411,-0.0412,-0.0452,-0.0445,-0.0415,-0.0446,-0.0447,-0.0505,-0.0512,-0.0524,-0.0567,-0.0572,-0.0565,-0.0567,-0.0569,-0.057,0,0,0,0,0,0,0,-0.0307,-0.0312,-0.0353,-0.0356,-0.036,-0.0382,-0.0388,-0.042,-0.0457,-0.0418,-0.0421,-0.0428,-0.0508,-0.052,-0.0526,-0.0573,-0.0565,-0.0568,-0.057,-0.0572,-0.0648,-0.0648,0,0,0,0,0,0,-0.0296,-0.0309,-0.0351,-0.0355,-0.0337,-0.0382,-0.039,-0.0395,-0.0456,-0.0465,-0.0427,-0.043,-0.0514,-0.0522,-0.053,-0.0557,-0.0569,-0.0572,-0.0574,-0.0648,-0.0648,-0.0648,0,0,0,0,0,0,-0.0294,-0.0299,-0.0348,-0.0333,-0.0341,-0.0382,-0.0388,-0.0396,-0.0409,-0.0462,-0.0473,-0.0432,-0.0515,-0.0525,-0.0562,-0.0561,-0.0574,-0.0577,-0.0648,-0.0648,-0.0648,-0.0601,0,0,0,0,0,0,-0.0292,-0.0298,-0.0295,-0.0332,-0.0341,-0.0359,-0.0388,-0.0397,-0.0411,-0.0416,-0.047,-0.048,-0.0516,-0.0556,-0.0565,-0.0566,-0.0579,-0.0648,-0.0648,-0.0648,-0.0603,-0.06,-0.0597,0,0,0,0,0,-0.029,-0.0281,-0.0295,-0.03,-0.0338,-0.0358,-0.0364,-0.0397,-0.0411,-0.0411,-0.0454,-0.0478,-0.0562,-0.0559,-0.057,-0.0571,-0.0648,-0.0648,-0.0648,-0.0604,-0.06,-0.0597,0,0,0,0,0,0,-0.0252,-0.0287,-0.0302,-0.0304,-0.0327,-0.0366,-0.0368,-0.039,-0.0423,-0.0428,-0.048,-0.0493,-0.0525,-0.0552,-0.0548,-0.0592,-0.0608,-0.061,-0.0571,-0.0568,-0.0565,-0.0555,-0.0582,0,0,0,0,0,-0.0242,-0.0248,-0.0283,-0.0283,-0.0292,-0.0328,-0.034,-0.0361,-0.0396,-0.041,-0.045,-0.0493,-0.0531,-0.0552,-0.0588,-0.0611,-0.0611,-0.0618,-0.0615,-0.0612,-0.0612,-0.0638,-0.0637,-0.0648,-0.0648,-0.0648,0,0,-0.0227,-0.0246,-0.0249,-0.0275,-0.0295,-0.0305,-0.0337,-0.0348,-0.0361,-0.0416,-0.0443,-0.0483,-0.0535,-0.0565,-0.0581,-0.0589,-0.0596,-0.0612,-0.061,-0.061,-0.0638,-0.0637,-0.0636,-0.0647,-0.0647,-0.0648,0,0,-0.0197,-0.0215,-0.0211,-0.0228,-0.0255,-0.028,-0.028,-0.0318,-0.0338,-0.0368,-0.0413,-0.0452,-0.0505,-0.0546,-0.0573,-0.0573,-0.058,-0.0581,-0.056,-0.0585,-0.0585,-0.0584,-0.052,-0.0515,-0.058,-0.058,-0.0579,0,-0.0175,-0.018,-0.0211,-0.0213,-0.0224,-0.0265,-0.0263,-0.0289,-0.0335,-0.0354,-0.0369,-0.0456,-0.0498,-0.0545,-0.0548,-0.0567,-0.0553,-0.0569,-0.058,-0.0581,-0.0581,-0.0516,-0.0511,-0.0577,-0.0578,-0.0578,-0.0578,0,-0.015,-0.0153,-0.0149,-0.017,-0.0184,-0.0187,-0.0228,-0.0245,-0.0275,-0.031,-0.0357,-0.0417,-0.0466,-0.0488,-0.0521,-0.0548,-0.0522,-0.0572,-0.0587,-0.0577,-0.0509,-0.0504,-0.0574,-0.0575,-0.0576,-0.0576,0,0,-0.0102,-0.0126,-0.0125,-0.0128,-0.0163,-0.0169,-0.0189,-0.0223,-0.0228,-0.0287,-0.0294,-0.0384,-0.0414,-0.0447,-0.0492,-0.0523,-0.0496,-0.0544,-0.0546,-0.0471,-0.0481,-0.0396,-0.0382,-0.0553,-0.0554,-0.0554,-0.0409,0,-0.0072,-0.0064,-0.0089,-0.0082,-0.0082,-0.0124,-0.0136,-0.0173,-0.0204,-0.0219,-0.0296,-0.0316,-0.0399,-0.0401,-0.0456,-0.0477,-0.0491,-0.0526,-0.051,-0.0507,-0.0429,-0.0378,-0.0397,-0.0266,-0.0404,-0.0403,-0.0403,0,-0.0042,-0.0041,-0.0028,-0.0041,-0.0043,-0.0047,-0.0067,-0.0081,-0.0124,-0.0142,-0.0194,-0.0234,-0.0271,-0.0343,-0.0393,-0.0408,-0.0444,-0.0472,-0.0468,-0.041,-0.0416,-0.0313,-0.0252,-0.0503,-0.0395,-0.0396,-0.0396,0,0.0002,0.0,0.0013,0.0008,-0.0012,-0.0014,-0.0024,-0.0062,-0.0037,-0.0074,-0.0024,-0.0131,-0.0091,-0.0211,-0.0243,-0.0322,-0.0259,-0.0378,-0.0335,-0.0325,-0.0348,-0.0341,-0.053,-0.0433,-0.0433,-0.0434,-0.0434,0,0.0037,0.0049,0.0037,0.0044,0.0068,0.0035,0.0068,0.0039,0.0062,0.0149,0.0034,0.0127,-0.0058,-0.0037,-0.0166,-0.0168,-0.0192,-0.0301,-0.0292,-0.0323,-0.0315,-0.0541,-0.0679,-0.0428,-0.043,-0.0431,-0.0432,0,0.0079,0.007,0.0089,0.0083,0.0089,0.0106,0.016,0.0209,0.0213,0.0344,0.0365,0.0371,0.0413,0.0274,0.0174,0.0019,-0.0165,-0.0061,-0.0024,-0.0017,-0.0281,-0.0412,-0.0509,-0.0618,-0.0029,-0.0026,-0.0024,0,0.01,0.0113,0.013,0.0177,0.0181,0.0219,0.0274,0.0276,0.0381,0.0535,0.065,0.0723,0.0841,0.0753,0.0477,0.0307,0.0029,0.0146,-0.0061,-0.0268,-0.041,-0.0513,-0.0609,-0.0042,-0.004,-0.0038,-0.0037,0,0.0155,0.016,0.0189,0.0289,0.0353,0.0432,0.0534,0.0642,0.0729,0.0867,0.1119,0.1226,0.1159,0.1011,0.0758,0.0561,-0.0048,0.0175,-0.0096,-0.0468,-0.054,-0.0648,-0.0105,-0.0022,-0.0024,-0.0025,-0.0026,-0.0026,0.022,0.0268,0.0345,0.0445,0.0534,0.0704,0.0806,0.0971,0.1176,0.1443,0.1508,0.1728,0.1428,0.1081,0.0768,0.0132,0.0106,-0.0127,-0.0262,-0.0341,-0.0494,0.0147,0.0259,0.0259,0.0259,0.0259,0.0259,0,0.0367,0.0439,0.0524,0.0677,0.0824,0.0822,0.1042,0.1183,0.1476,0.1726,0.1947,0.1998,0.1547,0.102,0.0204,-0.0252,-0.0506,-0.0522,-0.077,-0.0848,-0.0331,-0.0387,-0.0343,-0.0343,-0.0343,-0.0342,-0.0342,-0.0342,0.0469,0.0612,0.0661,0.0943,0.1043,0.1247,0.1376,0.1578,0.179,0.2137,0.2323,0.2463,0.2091,0.057,-0.0534,-0.0792,-0.1194,-0.1198,-0.1376,-0.1146,-0.1125,-0.1104,-0.1196,-0.1322,-0.1323,-0.1892,-0.1898,-0.1903]}],[{"header":{"parameterUnit":"m.s-1","parameterCategory":2,"la1":30.2991,"la2":30.254,"lo1":-89.0895,"lo2":-89.0444,"dy":0.0017,"dx":0.0017,"nx":28,"ny":28,"refTime":"2026-02-12T03:00:00:Z","depth":"2","parameterNumber":2,"parameterNumberName":"U-component_of_CURRENTS"},"data":[0,0,0,0,0,0,0,0,0,0,0,0,0,0,0,0,0,0,0,0,0,0,0,0,0,0,0,0,0,0,0,0,0,0,0,0,0,0,0,0,0,0,0,0,0,0,0,0,0,0,0,0,0,0,0,0,0,0,0.1578,0.1579,0,0.162,0.162,0.1621,0.1623,0.1623,0.1622,0.1622,0.1642,0.1643,0.1644,0,0,0,0,0,0,0,0,0,0,0,0,0,0.1502,0.1503,0.1578,0.1579,0.158,0.162,0.162,0.1621,0.1623,0.1623,0.1622,0.1622,0.1642,0.1643,0.1644,0,0,0,0,0,0,0,0,0,0,0,0,0,0.1536,0.1503,0.1578,0.1587,0.1588,0.162,0.1621,0.1621,0.1623,0.1623,0.1622,0.1622,0.1642,0.1643,0.1644,0.1661,0,0,0.1648,0.1648,0,0,0,0,0,0,0,0,0.1534,0.1539,0.1585,0.1587,0.1588,0.1618,0.1601,0.1634,0.1623,0.1608,0.1622,0.1621,0.1634,0.1635,0.1642,0.1662,0.1662,0.1648,0.1649,0.1649,0.1649,0,0,0,0,0,0,0,0.1532,0.1537,0.1593,0.1586,0.1588,0.159,0.1594,0.1607,0.1621,0.1609,0.161,0.1618,0.1634,0.1641,0.1642,0.1663,0.1648,0.1649,0.165,0.165,0.1737,0.1739,0,0,0,0,0,0,0.1532,0.1535,0.1591,0.1594,0.1562,0.1592,0.1596,0.1607,0.1621,0.1624,0.1618,0.1618,0.1639,0.1641,0.1643,0.1694,0.1649,0.165,0.1651,0.1736,0.1738,0.1739,0,0,0,0,0,0,0.153,0.1536,0.159,0.1567,0.1574,0.1594,0.1606,0.1608,0.1621,0.1629,0.163,0.1629,0.1638,0.1641,0.1664,0.1693,0.1651,0.1652,0.1734,0.1736,0.1738,0.1775,0,0,0,0,0,0,0.1527,0.1535,0.1544,0.1567,0.1575,0.1616,0.1606,0.1609,0.1627,0.1627,0.1639,0.164,0.1638,0.1662,0.1665,0.1694,0.1653,0.1732,0.1735,0.1738,0.1772,0.1779,0.1784,0,0,0,0,0,0.1525,0.1538,0.1544,0.1551,0.1586,0.1617,0.1621,0.1632,0.1628,0.164,0.1647,0.1639,0.1684,0.1664,0.1667,0.1697,0.173,0.1734,0.1737,0.1769,0.1777,0.1784,0,0,0,0,0,0,0.1508,0.1541,0.1547,0.157,0.1595,0.1618,0.1631,0.1638,0.1654,0.1653,0.1654,0.1656,0.1689,0.169,0.1669,0.1733,0.1708,0.1713,0.1732,0.1739,0.1745,0.1772,0.1654,0,0,0,0,0,0.151,0.153,0.156,0.1579,0.1593,0.1613,0.1627,0.1637,0.1654,0.166,0.1669,0.1685,0.1707,0.1719,0.1735,0.1766,0.1791,0.1791,0.1797,0.1802,0.1827,0.1878,0.1891,0.1751,0.1751,0.1751,0,0,0.1508,0.153,0.154,0.1577,0.1596,0.1624,0.162,0.1647,0.1673,0.1661,0.1694,0.1704,0.172,0.1757,0.1772,0.176,0.1856,0.1806,0.181,0.1834,0.1883,0.1896,0.1908,0.1753,0.1753,0.1753,0,0,0.1516,0.1537,0.1556,0.1581,0.1616,0.1634,0.1645,0.1675,0.1691,0.1724,0.1727,0.1758,0.1783,0.1808,0.1822,0.1875,0.1885,0.1878,0.1931,0.1979,0.1991,0.2002,0.2055,0.2071,0.1882,0.1882,0.1882,0,0.1511,0.1544,0.1566,0.1594,0.162,0.1641,0.1671,0.1695,0.1728,0.1758,0.174,0.1813,0.1814,0.1881,0.1897,0.189,0.1921,0.1897,0.1987,0.1999,0.2009,0.2061,0.2077,0.1884,0.1884,0.1884,0.1884,0,0.1536,0.1565,0.1581,0.1625,0.1654,0.1685,0.1724,0.1757,0.1777,0.1806,0.1873,0.1885,0.1937,0.1937,0.1932,0.2015,0.2014,0.1985,0.1967,0.2025,0.2076,0.2093,0.1888,0.1887,0.1886,0.1886,0,0,0.1516,0.1584,0.159,0.162,0.1676,0.1703,0.1758,0.1822,0.1879,0.1906,0.1979,0.2016,0.2037,0.2056,0.206,0.2097,0.2185,0.2078,0.208,0.2129,0.2307,0.2264,0.2278,0.217,0.2173,0.2176,0.2314,0,0.153,0.1585,0.1618,0.1676,0.171,0.1759,0.1815,0.1876,0.1931,0.2005,0.2041,0.2103,0.2078,0.211,0.215,0.2176,0.2231,0.2152,0.2247,0.2251,0.2202,0.2296,0.2121,0.2226,0.233,0.2333,0.2335,0,0.1542,0.1582,0.1637,0.1721,0.1742,0.178,0.1889,0.1947,0.2055,0.2101,0.2178,0.2207,0.2286,0.224,0.2347,0.2299,0.2323,0.2333,0.2338,0.2301,0.2238,0.2185,0.2252,0.2362,0.236,0.2358,0.2356,0,0.1521,0.1595,0.1642,0.1668,0.1763,0.1806,0.1864,0.1976,0.2049,0.2171,0.2231,0.2324,0.2379,0.2424,0.2461,0.2412,0.2571,0.2498,0.2492,0.2489,0.2363,0.2343,0.2591,0.2591,0.259,0.259,0.2589,0,0.1523,0.1561,0.1636,0.1663,0.1732,0.1806,0.1905,0.1981,0.2112,0.2205,0.2281,0.2368,0.2428,0.2515,0.2524,0.2582,0.2632,0.2541,0.2534,0.237,0.2351,0.2477,0.2462,0.2595,0.2594,0.2593,0.2592,0,0.1493,0.1541,0.1605,0.17,0.1723,0.178,0.1906,0.1992,0.2113,0.2238,0.2278,0.2429,0.2533,0.2599,0.269,0.2667,0.2713,0.2721,0.2533,0.2501,0.258,0.2565,0.272,0.272,0.272,0.272,0.272,0,0.1491,0.1516,0.1608,0.1648,0.1688,0.1774,0.184,0.1971,0.2064,0.2267,0.2324,0.2477,0.2555,0.2697,0.2708,0.2753,0.2764,0.2604,0.2466,0.2622,0.26,0.2585,0.2571,0.2319,0.2316,0.2313,0.2311,0,0.1491,0.152,0.1571,0.163,0.1692,0.1764,0.1863,0.1915,0.2081,0.2167,0.2307,0.2385,0.2558,0.2535,0.2618,0.2605,0.2573,0.2547,0.2793,0.2303,0.2253,0.2228,0.2226,0.2287,0.229,0.2291,0.2293,0.2294,0.1493,0.1516,0.1568,0.1617,0.1684,0.1727,0.1752,0.1838,0.1913,0.2019,0.2182,0.2244,0.2354,0.237,0.2346,0.2341,0.2481,0.2362,0.2367,0.2376,0.2294,0.2245,0.2264,0.2267,0.2268,0.227,0.2272,0,0.148,0.1495,0.1551,0.16,0.1627,0.1684,0.1752,0.1734,0.1737,0.188,0.1959,0.1885,0.1929,0.2038,0.2004,0.2028,0.1971,0.1941,0.1847,0.1876,0.19,0.1789,0.1628,0.1625,0.1622,0.162,0,0,0.1466,0.1479,0.1491,0.1508,0.155,0.1542,0.155,0.1506,0.1558,0.1538,0.1596,0.1811,0.1969,0.1745,0.1757,0.1685,0.1747,0.1625,0.2153,0.2071,0.2091,0.2173,0.2039,0,0,0,0,0]},{"header":{"parameterUnit":"m.s-1","parameterCategory":2,"la1":30.2991,"la2":30.254,"lo1":-89.0895,"lo2":-89.0444,"dy":0.0017,"dx":0.0017,"nx":28,"ny":28,"refTime":"2026-02-12T03:00:00:Z","depth":"2","parameterNumber":3,"parameterNumberName":"V-component_of_CURRENTS"},"data":[0,0,0,0,0,0,0,0,0,0,0,0,0,0,0,0,0,0,0,0,0,0,0,0,0,0,0,0,0,0,0,0,0,0,0,0,0,0,0,0,0,0,0,0,0,0,0,0,0,0,0,0,0,0,0,0,0,0,-0.0237,-0.0237,0,-0.0281,-0.0281,-0.0282,-0.0313,-0.0313,-0.0314,-0.0314,-0.0372,-0.0373,-0.0374,0,0,0,0,0,0,0,0,0,0,0,0,0,-0.0188,-0.0188,-0.0237,-0.0237,-0.0238,-0.0281,-0.0281,-0.0282,-0.0313,-0.0313,-0.0314,-0.0314,-0.0372,-0.0373,-0.0375,0,0,0,0,0,0,0,0,0,0,0,0,0,-0.0217,-0.0189,-0.0237,-0.0259,-0.0262,-0.0281,-0.0281,-0.0282,-0.0313,-0.0313,-0.0314,-0.0314,-0.0371,-0.0373,-0.0375,-0.0376,0,0,-0.038,-0.0381,0,0,0,0,0,0,0,0,-0.0216,-0.0219,-0.0255,-0.0258,-0.0261,-0.0293,-0.0286,-0.0314,-0.0313,-0.0293,-0.0314,-0.0315,-0.0347,-0.0351,-0.0357,-0.0379,-0.0381,-0.0381,-0.0382,-0.0382,-0.0383,0,0,0,0,0,0,0,-0.0213,-0.0217,-0.0253,-0.0256,-0.0259,-0.027,-0.0275,-0.0291,-0.0316,-0.0294,-0.0297,-0.0303,-0.0349,-0.0355,-0.0358,-0.0382,-0.038,-0.0382,-0.0383,-0.0384,-0.0431,-0.0431,0,0,0,0,0,0,-0.0209,-0.0215,-0.0252,-0.0255,-0.024,-0.0271,-0.0276,-0.0281,-0.0316,-0.0321,-0.0303,-0.0305,-0.0351,-0.0356,-0.036,-0.0365,-0.0382,-0.0384,-0.0385,-0.0431,-0.0431,-0.0431,0,0,0,0,0,0,-0.0208,-0.0212,-0.025,-0.0237,-0.0243,-0.0271,-0.0277,-0.0282,-0.029,-0.0322,-0.0328,-0.0306,-0.0352,-0.0358,-0.0372,-0.0367,-0.0385,-0.0387,-0.0431,-0.0431,-0.0431,-0.0373,0,0,0,0,0,0,-0.0206,-0.0211,-0.0211,-0.0236,-0.0243,-0.0255,-0.0277,-0.0282,-0.0294,-0.0296,-0.0327,-0.0333,-0.0353,-0.0369,-0.0373,-0.037,-0.0388,-0.0431,-0.0431,-0.0431,-0.0375,-0.0371,-0.0368,0,0,0,0,0,-0.0204,-0.0198,-0.021,-0.0215,-0.0243,-0.0255,-0.0259,-0.028,-0.0293,-0.0291,-0.0313,-0.0332,-0.0374,-0.037,-0.0375,-0.0373,-0.043,-0.0431,-0.0431,-0.0376,-0.0372,-0.0368,0,0,0,0,0,0,-0.0173,-0.0201,-0.0215,-0.0217,-0.0234,-0.026,-0.026,-0.0277,-0.0293,-0.0296,-0.0327,-0.0334,-0.0346,-0.0369,-0.0364,-0.039,-0.0408,-0.041,-0.0365,-0.0361,-0.0358,-0.0377,-0.039,0,0,0,0,0,-0.0167,-0.0171,-0.0199,-0.02,-0.0207,-0.0234,-0.0241,-0.0256,-0.0276,-0.0283,-0.0306,-0.0333,-0.0352,-0.0363,-0.0383,-0.0393,-0.0431,-0.0398,-0.0395,-0.0392,-0.0413,-0.0468,-0.0472,-0.0432,-0.0432,-0.0432,0,0,-0.0155,-0.0171,-0.0174,-0.0194,-0.0208,-0.0207,-0.0239,-0.0246,-0.0245,-0.0287,-0.0291,-0.0319,-0.0352,-0.0362,-0.0371,-0.038,-0.0416,-0.0392,-0.0389,-0.0413,-0.0469,-0.0473,-0.0477,-0.0433,-0.0433,-0.0433,0,0,-0.0128,-0.0147,-0.0141,-0.0151,-0.0171,-0.0186,-0.0187,-0.0213,-0.0224,-0.0234,-0.0264,-0.0294,-0.0318,-0.0345,-0.0361,-0.0355,-0.0395,-0.0359,-0.0358,-0.041,-0.0414,-0.0418,-0.0438,-0.0445,-0.0359,-0.0359,-0.0359,0,-0.0112,-0.011,-0.0139,-0.0134,-0.0136,-0.0173,-0.0161,-0.0176,-0.0203,-0.0217,-0.0229,-0.0293,-0.0313,-0.0344,-0.0344,-0.0348,-0.0379,-0.0364,-0.0406,-0.0411,-0.0416,-0.0436,-0.0444,-0.0356,-0.0356,-0.0357,-0.0357,0,-0.0082,-0.008,-0.0074,-0.0081,-0.0086,-0.0081,-0.0106,-0.0116,-0.0139,-0.0166,-0.0206,-0.0249,-0.0297,-0.0301,-0.0321,-0.0366,-0.0374,-0.0391,-0.0413,-0.0417,-0.0437,-0.0446,-0.0352,-0.0353,-0.0354,-0.0355,0,0,-0.0046,-0.0052,-0.005,-0.0041,-0.0057,-0.0056,-0.0056,-0.0075,-0.0092,-0.0132,-0.016,-0.0209,-0.0261,-0.0286,-0.0322,-0.037,-0.0413,-0.0398,-0.0402,-0.0413,-0.0514,-0.0472,-0.0478,-0.0441,-0.0443,-0.0444,-0.0501,0,-0.0013,0.0013,-0.0001,0.0026,0.004,0.0009,0.0006,-0.002,-0.0056,-0.0092,-0.0159,-0.0196,-0.0246,-0.027,-0.0333,-0.039,-0.0442,-0.0396,-0.0515,-0.0519,-0.0478,-0.049,-0.0456,-0.05,-0.051,-0.0512,-0.0513,0,0.0022,0.0035,0.0068,0.0074,0.0075,0.0081,0.006,0.0052,-0.0013,-0.0047,-0.0119,-0.0172,-0.0246,-0.0286,-0.042,-0.039,-0.0461,-0.051,-0.0514,-0.0512,-0.0496,-0.0507,-0.0517,-0.0529,-0.0528,-0.0526,-0.0525,0,0.0063,0.0085,0.0114,0.0118,0.0115,0.0118,0.0111,0.006,0.0055,-0.0022,-0.0035,-0.0155,-0.0182,-0.0315,-0.0413,-0.0426,-0.0548,-0.0573,-0.0606,-0.0602,-0.0618,-0.0612,-0.0689,-0.0689,-0.0689,-0.0688,-0.0688,0,0.0105,0.0128,0.0134,0.0149,0.0177,0.0154,0.0157,0.0128,0.0087,0.009,-0.0014,-0.0021,-0.0193,-0.0272,-0.0403,-0.0517,-0.0543,-0.0618,-0.0626,-0.0591,-0.0582,-0.0652,-0.0647,-0.069,-0.069,-0.069,-0.0689,0,0.0143,0.0147,0.0178,0.0187,0.0197,0.021,0.0218,0.0215,0.017,0.0175,0.0165,0.0087,-0.0008,-0.017,-0.0346,-0.046,-0.0596,-0.0632,-0.0559,-0.0557,-0.0622,-0.0614,-0.0695,-0.0694,-0.0694,-0.0693,-0.0693,0,0.0163,0.0184,0.0214,0.0236,0.0244,0.0264,0.0281,0.0256,0.0273,0.0259,0.0284,0.021,0.0178,-0.0053,-0.0275,-0.0493,-0.0542,-0.0594,-0.0628,-0.063,-0.0629,-0.0621,-0.0614,-0.0616,-0.0615,-0.0614,-0.0613,0,0.0196,0.02,0.0225,0.028,0.0311,0.0356,0.0391,0.043,0.0417,0.0442,0.049,0.0471,0.0263,0.0073,-0.0216,-0.0367,-0.0563,-0.0581,-0.0624,-0.0605,-0.0556,-0.0554,-0.055,-0.0605,-0.0606,-0.0607,-0.0607,-0.0607,0.0208,0.0233,0.0265,0.0321,0.0368,0.045,0.0508,0.0563,0.0632,0.0689,0.0662,0.065,0.0398,0.0058,-0.0198,-0.047,-0.0487,-0.059,-0.0593,-0.0597,-0.0564,-0.0515,-0.055,-0.055,-0.055,-0.0551,-0.0551,0,0.022,0.0258,0.0309,0.0376,0.0446,0.0472,0.0584,0.0648,0.0766,0.0821,0.0857,0.066,0.0436,0.0151,-0.024,-0.0483,-0.0525,-0.0551,-0.056,-0.0565,-0.0571,-0.0537,-0.0516,-0.0516,-0.0517,-0.0517,0,0,0.0225,0.0275,0.0311,0.0428,0.0493,0.0613,0.0697,0.0797,0.087,0.0948,0.0955,0.0887,0.0542,0.0271,-0.007,-0.0286,-0.0367,-0.0326,-0.033,-0.0306,-0.0308,-0.057,-0.052,0,0,0,0,0]}],[{"header":{"parameterUnit":"m.s-1","parameterCategory":2,"la1":30.2991,"la2":30.254,"lo1":-89.0895,"lo2":-89.0444,"dy":0.0017,"dx":0.0017,"nx":28,"ny":28,"refTime":"2026-02-12T03:00:00:Z","depth":"4","parameterNumber":2,"parameterNumberName":"U-component_of_CURRENTS"},"data":[0,0,0,0,0,0,0,0,0,0,0,0,0,0,0,0,0,0,0,0,0,0,0,0,0,0,0,0,0,0,0,0,0,0,0,0,0,0,0,0,0,0,0,0,0,0,0,0,0,0,0,0,0,0,0,0,0,0,0.1082,0.1083,0,0.1138,0.1139,0.1139,0.1171,0.1172,0.1172,0.1172,0.12,0.1201,0.1201,0,0,0,0,0,0,0,0,0,0,0,0,0,0.0985,0.0986,0.1082,0.1083,0.1084,0.1138,0.1139,0.1139,0.1171,0.1172,0.1172,0.1172,0.12,0.1201,0.1201,0,0,0,0,0,0,0,0,0,0,0,0,0,0.103,0.0987,0.1082,0.1109,0.1112,0.1138,0.1139,0.1139,0.1171,0.1172,0.1172,0.1173,0.12,0.1201,0.1201,0.1194,0,0,0.1203,0.1203,0,0,0,0,0,0,0,0,0.1027,0.1033,0.1104,0.1107,0.111,0.1151,0.1115,0.1157,0.1171,0.1146,0.1172,0.1173,0.1182,0.1185,0.1191,0.1196,0.1197,0.1203,0.1204,0.1204,0.1204,0,0,0,0,0,0,0,0.1024,0.1031,0.1102,0.1105,0.1109,0.1112,0.1118,0.1123,0.1158,0.1148,0.1151,0.1161,0.1184,0.119,0.1191,0.1197,0.1203,0.1204,0.1204,0.1204,0.1264,0.1265,0,0,0,0,0,0,0.1023,0.1028,0.11,0.1104,0.1072,0.1113,0.1121,0.1135,0.1158,0.1164,0.1161,0.1163,0.1189,0.1191,0.1192,0.1245,0.1204,0.1204,0.1205,0.1262,0.1264,0.1265,0,0,0,0,0,0,0.1021,0.1029,0.1098,0.1069,0.1078,0.1115,0.113,0.1136,0.1165,0.1169,0.1173,0.1187,0.1189,0.1192,0.122,0.1244,0.1205,0.1205,0.1261,0.1263,0.1264,0.1311,0,0,0,0,0,0,0.1018,0.1028,0.1046,0.1069,0.108,0.1128,0.113,0.1137,0.117,0.1174,0.1192,0.1194,0.119,0.1219,0.122,0.1244,0.1206,0.1259,0.1262,0.1264,0.1308,0.1314,0.132,0,0,0,0,0,0.1014,0.1033,0.1047,0.1056,0.1101,0.1129,0.1135,0.116,0.1171,0.1188,0.1204,0.1195,0.1234,0.122,0.1222,0.1246,0.1258,0.1261,0.1264,0.1306,0.1313,0.132,0,0,0,0,0,0,0.0999,0.1039,0.1054,0.1085,0.1114,0.1136,0.1158,0.1173,0.1199,0.1208,0.1209,0.1212,0.1246,0.124,0.1225,0.1271,0.1245,0.1248,0.1277,0.1284,0.1289,0.1283,0.1206,0,0,0,0,0,0.1005,0.1033,0.1065,0.1093,0.111,0.1138,0.1157,0.1175,0.1197,0.1211,0.1225,0.124,0.1254,0.1265,0.1274,0.1298,0.13,0.1316,0.1321,0.1326,0.1323,0.1356,0.1365,0.1274,0.1274,0.1274,0,0,0.1006,0.1033,0.1049,0.1093,0.1118,0.1141,0.1151,0.1188,0.1209,0.1208,0.1247,0.1261,0.1265,0.1294,0.1308,0.1295,0.1356,0.133,0.1334,0.1327,0.136,0.1369,0.1376,0.1276,0.1275,0.1275,0,0,0.1014,0.105,0.1073,0.1099,0.1144,0.116,0.1176,0.1213,0.1235,0.127,0.1277,0.1307,0.133,0.1339,0.1344,0.1386,0.1385,0.1396,0.1421,0.1454,0.1462,0.1468,0.149,0.1498,0.14,0.14,0.14,0,0.1014,0.1048,0.1084,0.1111,0.1133,0.117,0.1192,0.1219,0.1261,0.1281,0.129,0.1342,0.1347,0.138,0.1397,0.1399,0.1417,0.1394,0.1462,0.1468,0.1474,0.1495,0.1503,0.1402,0.1402,0.1402,0.1402,0,0.1033,0.1066,0.1084,0.1129,0.1157,0.1185,0.1223,0.1258,0.129,0.1314,0.1367,0.1387,0.1416,0.1429,0.1425,0.1474,0.1473,0.1466,0.1443,0.1486,0.1505,0.1513,0.1406,0.1405,0.1404,0.1404,0,0,0.1008,0.1082,0.1088,0.1113,0.1169,0.119,0.1234,0.1277,0.131,0.136,0.1402,0.1439,0.1462,0.1469,0.1482,0.1512,0.1571,0.1512,0.1512,0.1531,0.1648,0.157,0.1571,0.1585,0.1587,0.1588,0.1647,0,0.1009,0.1056,0.1094,0.1136,0.116,0.1209,0.1243,0.129,0.1335,0.1386,0.1427,0.1476,0.1475,0.1507,0.1534,0.1556,0.1594,0.1556,0.1605,0.1606,0.1529,0.1578,0.1593,0.1653,0.1655,0.1656,0.1657,0,0.1005,0.1039,0.1079,0.1141,0.1158,0.119,0.1254,0.1294,0.1367,0.1407,0.1466,0.1505,0.1558,0.1559,0.1621,0.1602,0.1632,0.1651,0.1653,0.1565,0.1542,0.1599,0.1671,0.167,0.1669,0.1668,0.1667,0,0.0956,0.1024,0.1056,0.1077,0.1152,0.1185,0.123,0.1301,0.1339,0.1436,0.1484,0.1542,0.1598,0.1632,0.1678,0.166,0.1748,0.1723,0.1684,0.1679,0.171,0.1702,0.1785,0.1785,0.1785,0.1784,0.1784,0,0.0927,0.0955,0.1042,0.1057,0.11,0.1166,0.1221,0.1276,0.1355,0.1411,0.15,0.1556,0.1627,0.1687,0.1701,0.1714,0.177,0.1693,0.1692,0.1729,0.1723,0.1716,0.1707,0.1787,0.1786,0.1786,0.1785,0,0.0863,0.0922,0.0962,0.1046,0.1079,0.1111,0.121,0.1245,0.1343,0.1422,0.1464,0.158,0.1661,0.1721,0.1789,0.1747,0.1765,0.1768,0.1815,0.1814,0.1664,0.1657,0.1701,0.1699,0.1697,0.1695,0.1694,0,0.0833,0.0849,0.0939,0.0967,0.101,0.1077,0.112,0.1222,0.1264,0.1429,0.1456,0.1591,0.1664,0.1686,0.1751,0.1777,0.1773,0.1763,0.1695,0.1663,0.1657,0.1653,0.1649,0.1691,0.169,0.169,0.1689,0,0.0766,0.0806,0.0838,0.0897,0.095,0.1004,0.1081,0.1101,0.1234,0.1338,0.1426,0.1494,0.1594,0.1637,0.1691,0.1703,0.1741,0.1743,0.1746,0.1682,0.1651,0.1647,0.1645,0.1683,0.1684,0.1684,0.1685,0,0.0712,0.0718,0.0769,0.0818,0.088,0.0918,0.097,0.104,0.1099,0.1279,0.1309,0.1463,0.1578,0.1603,0.1642,0.1656,0.1624,0.1559,0.1571,0.1579,0.1513,0.1455,0.1431,0,0,0,0,0,0.0649,0.0656,0.069,0.0739,0.0798,0.0842,0.0937,0.0994,0.113,0.1158,0.1228,0.1322,0.1411,0.148,0.147,0.1585,0.1622,0.1566,0.1549,0.1647,0.1654,0.1589,0,0,0,0,0,0,0.0606,0.063,0.0657,0.0669,0.0692,0.0751,0.0811,0.0903,0.0923,0.1069,0.1119,0.1239,0.1333,0.1401,0.1442,0.1464,0.1427,0.1655,0.1652,0.1642,0.1649,0.1655,0.1591,0,0,0,0,0]},{"header":{"parameterUnit":"m.s-1","parameterCategory":2,"la1":30.2991,"la2":30.254,"lo1":-89.0895,"lo2":-89.0444,"dy":0.0017,"dx":0.0017,"nx":28,"ny":28,"refTime":"2026-02-12T03:00:00:Z","depth":"4","parameterNumber":3,"parameterNumberName":"V-component_of_CURRENTS"},"data":[0,0,0,0,0,0,0,0,0,0,0,0,0,0,0,0,0,0,0,0,0,0,0,0,0,0,0,0,0,0,0,0,0,0,0,0,0,0,0,0,0,0,0,0,0,0,0,0,0,0,0,0,0,0,0,0,0,0,-0.0113,-0.0114,0,-0.0141,-0.0142,-0.0142,-0.0165,-0.0165,-0.0165,-0.0166,-0.0184,-0.0184,-0.0184,0,0,0,0,0,0,0,0,0,0,0,0,0,-0.0078,-0.0078,-0.0113,-0.0114,-0.0114,-0.0141,-0.0142,-0.0142,-0.0165,-0.0165,-0.0166,-0.0166,-0.0184,-0.0184,-0.0184,0,0,0,0,0,0,0,0,0,0,0,0,0,-0.0097,-0.0079,-0.0113,-0.0129,-0.0131,-0.0141,-0.0142,-0.0142,-0.0165,-0.0165,-0.0166,-0.0166,-0.0184,-0.0184,-0.0184,-0.0176,0,0,-0.0185,-0.0185,0,0,0,0,0,0,0,0,-0.0096,-0.0099,-0.0127,-0.0128,-0.013,-0.0151,-0.0136,-0.0153,-0.0165,-0.0151,-0.0166,-0.0166,-0.0172,-0.0173,-0.0176,-0.0177,-0.0177,-0.0185,-0.0185,-0.0185,-0.0185,0,0,0,0,0,0,0,-0.0095,-0.0097,-0.0123,-0.0127,-0.0129,-0.0135,-0.0138,-0.0139,-0.0157,-0.0152,-0.0154,-0.0159,-0.0173,-0.0176,-0.0177,-0.0178,-0.0185,-0.0185,-0.0185,-0.0185,-0.0181,-0.0181,0,0,0,0,0,0,-0.0093,-0.0096,-0.0122,-0.0124,-0.0115,-0.0136,-0.0139,-0.0143,-0.0158,-0.0161,-0.0158,-0.016,-0.0175,-0.0177,-0.0178,-0.0164,-0.0185,-0.0185,-0.0186,-0.0182,-0.0181,-0.0181,0,0,0,0,0,0,-0.0092,-0.0095,-0.0121,-0.0112,-0.0116,-0.0136,-0.014,-0.0143,-0.0151,-0.0163,-0.0166,-0.0163,-0.0176,-0.0177,-0.0181,-0.0166,-0.0186,-0.0186,-0.0182,-0.0181,-0.0181,-0.0141,0,0,0,0,0,0,-0.0091,-0.0095,-0.0096,-0.0112,-0.0116,-0.0125,-0.014,-0.0144,-0.0154,-0.0156,-0.0168,-0.017,-0.0176,-0.018,-0.0181,-0.0166,-0.0186,-0.0182,-0.0182,-0.0181,-0.0142,-0.0139,-0.0136,0,0,0,0,0,-0.009,-0.0086,-0.0096,-0.0099,-0.0118,-0.0124,-0.0127,-0.0142,-0.0153,-0.0152,-0.0163,-0.017,-0.0178,-0.018,-0.0181,-0.0166,-0.0182,-0.0182,-0.0181,-0.0144,-0.014,-0.0136,0,0,0,0,0,0,-0.007,-0.0089,-0.0099,-0.0102,-0.0113,-0.0129,-0.013,-0.0142,-0.015,-0.0153,-0.0167,-0.0169,-0.0167,-0.0174,-0.0177,-0.0165,-0.0181,-0.018,-0.0152,-0.0148,-0.0145,-0.0126,-0.0186,0,0,0,0,0,-0.0067,-0.0071,-0.0089,-0.0091,-0.0095,-0.0114,-0.0119,-0.013,-0.014,-0.0145,-0.0155,-0.0163,-0.0164,-0.0163,-0.0169,-0.016,-0.0178,-0.0152,-0.0148,-0.0145,-0.0132,-0.0143,-0.0139,-0.0179,-0.0179,-0.0179,0,0,-0.006,-0.0071,-0.0073,-0.0087,-0.0097,-0.0091,-0.0118,-0.0124,-0.0115,-0.0144,-0.0137,-0.0154,-0.0161,-0.0153,-0.0152,-0.0157,-0.015,-0.0145,-0.0142,-0.013,-0.0142,-0.0138,-0.0134,-0.0179,-0.0179,-0.0179,0,0,-0.0042,-0.0058,-0.0052,-0.0058,-0.0072,-0.0078,-0.008,-0.0096,-0.01,-0.01,-0.0117,-0.0124,-0.013,-0.0127,-0.0127,-0.0109,-0.0137,-0.0116,-0.0078,-0.0089,-0.0086,-0.0083,-0.0127,-0.0128,-0.011,-0.011,-0.0109,0,-0.0033,-0.0027,-0.0051,-0.0044,-0.0039,-0.0069,-0.0053,-0.0059,-0.0074,-0.0067,-0.0093,-0.0096,-0.0112,-0.0087,-0.0087,-0.0099,-0.0125,-0.009,-0.0084,-0.0081,-0.0079,-0.0125,-0.0127,-0.0108,-0.0108,-0.0108,-0.0108,0,-0.0009,-0.0002,0.0002,0.0004,0.0006,0.0014,0.0004,0.0006,-0.0008,-0.0014,-0.0008,-0.0034,-0.0032,-0.0043,-0.0061,-0.0045,-0.0078,-0.0083,-0.0091,-0.0072,-0.0123,-0.0125,-0.0105,-0.0105,-0.0106,-0.0106,0,0,0.0011,0.0019,0.0021,0.0039,0.0035,0.0043,0.0061,0.0076,0.0096,0.007,0.0092,0.0074,0.0052,0.005,0.0024,0.001,-0.0015,-0.0029,-0.0031,-0.0069,-0.0068,-0.01,-0.0107,-0.0021,-0.0021,-0.002,-0.0119,0,0.0041,0.0073,0.0068,0.0109,0.0129,0.012,0.0146,0.0153,0.0147,0.0157,0.0131,0.0133,0.0091,0.0085,0.0068,0.001,-0.0016,0.001,-0.0083,-0.0087,-0.0113,-0.0108,-0.0019,-0.0122,-0.0122,-0.0123,-0.0123,0,0.0069,0.0091,0.0134,0.0176,0.0185,0.0204,0.0245,0.0263,0.0269,0.0261,0.0255,0.0222,0.0202,0.0155,0.0079,0.0095,0.002,-0.0035,-0.004,-0.0078,-0.0122,-0.0139,-0.0128,-0.0128,-0.0127,-0.0127,-0.0127,0,0.0103,0.0141,0.0183,0.0194,0.023,0.0255,0.0277,0.0295,0.0319,0.0321,0.0321,0.0296,0.0264,0.0197,0.007,0.0077,-0.0037,-0.0039,-0.014,-0.0145,-0.0105,-0.0107,-0.0094,-0.0094,-0.0094,-0.0093,-0.0093,0,0.0141,0.0175,0.0202,0.0225,0.0286,0.0296,0.0356,0.0368,0.0388,0.0413,0.0373,0.0364,0.027,0.0188,0.009,-0.0043,-0.0024,-0.0132,-0.0163,-0.0092,-0.009,-0.011,-0.011,-0.0097,-0.0096,-0.0095,-0.0095,0,0.017,0.0185,0.0239,0.0285,0.0301,0.0346,0.04,0.0438,0.0445,0.047,0.0467,0.0406,0.0294,0.0177,0.0039,-0.0032,-0.0146,-0.0205,-0.0148,-0.0174,-0.0253,-0.025,-0.0301,-0.0302,-0.0304,-0.0305,-0.0306,0,0.0188,0.0215,0.0278,0.031,0.033,0.0391,0.043,0.0462,0.0491,0.0488,0.0491,0.0393,0.0332,0.0118,-0.0007,-0.0193,-0.0223,-0.0279,-0.0232,-0.0244,-0.0269,-0.0264,-0.026,-0.0308,-0.0309,-0.0309,-0.031,0,0.0221,0.024,0.0281,0.0341,0.0387,0.045,0.0498,0.0524,0.055,0.0556,0.0508,0.0404,0.0262,0.0108,-0.0058,-0.0185,-0.0226,-0.0295,-0.0292,-0.0248,-0.0254,-0.0276,-0.027,-0.0315,-0.0314,-0.0313,-0.0313,0,0.0238,0.027,0.031,0.0367,0.0426,0.0475,0.0514,0.0534,0.0561,0.0553,0.0528,0.0391,0.0314,0.0107,-0.0036,-0.0171,-0.019,-0.0205,-0.0207,-0.0203,-0.0141,-0.0133,-0.0178,0,0,0,0,0,0.0249,0.0273,0.0328,0.0386,0.0446,0.0477,0.0537,0.0568,0.0589,0.0561,0.055,0.042,0.0212,0.0121,-0.002,-0.0069,-0.0222,-0.0238,-0.0242,-0.0343,-0.0337,-0.0283,0,0,0,0,0,0,0.0249,0.0294,0.0321,0.0383,0.0424,0.0486,0.0527,0.0549,0.0537,0.0539,0.0426,0.0389,0.0178,0.0282,-0.0026,-0.0067,-0.0085,-0.0333,-0.0336,-0.0346,-0.0341,-0.0336,-0.0279,0,0,0,0,0]}]]